Home > Weather > Salem > Past weeks

Flag for U.S.A. Weather for the Past 2 Weeks in Salem, Oregon, U.S.A.

Now
46 °F

Clear.


Feels Like: 43 °F
Forecast: 45 / 52 °F
Wind: 6 mph from South

Location: McNary Field

Current Time: Feb 13, 2016 at 1:47:48 AM

Latest Report: Feb 13, 2016 at 12:56 AM


Visibility: 10 mi

Pressure: 30.32 "Hg

Humidity: 86%

Dew point: 42 °F

Location of SalemLocation

Historic Weather in Salem — Graph

°F

Salem Temperature Yesterday

Maximum temperature yesterday: 57 °F (at 11:56 AM)
Minimum temperature yesterday: 44 °F (at 11:56 PM)
Average temperature yesterday: 52 °F

High & Low Weather Summary for the Past Weeks

 TemperatureHumidityPressure
High64 °F (Feb 8, 2:56 PM)97% (Jan 31, 6:56 AM)30.53 "Hg (Jan 31, 6:56 AM)
Low34 °F (Jan 31, 5:56 AM)42% (Feb 5, 2:56 PM)29.61 "Hg (Jan 29, 6:56 AM)
Average46 °F81%30.21 "Hg
* Reported Jan 28 11:56 PM — Feb 12 11:56 PM, Salem, Weather by CustomWeather, © 2016

Note: Actual official high and low records may vary slightly from our data, if they occured in-between our weather recording intervals... More about our weather records

Advertising

Salem Weather History for the Previous 24 Hours

 ConditionsComfort  
Time TempWeatherWind HumidityBarometerVisibility
11:56 PM
Fri, Feb 12
44 °FClear.8 mph89%30.32 "Hg10 mi
10:56 PM46 °FPassing clouds.8 mph89%30.30 "Hg10 mi
9:56 PM46 °FClear.7 mph86%30.29 "Hg10 mi
8:56 PM46 °FClear.7 mph86%30.27 "Hg10 mi
7:56 PM48 °FClear.7 mph83%30.25 "Hg10 mi
6:56 PM49 °FClear.8 mph80%30.24 "Hg10 mi
5:56 PM53 °FPassing clouds.5 mph69%30.23 "Hg10 mi
4:56 PM55 °FBroken clouds.8 mph83%30.21 "Hg10 mi
3:56 PM57 °FBroken clouds.9 mph81%30.20 "Hg10 mi
2:56 PM57 °FBroken clouds.10 mph83%30.18 "Hg10 mi
1:56 PM56 °FCloudy.6 mph84%30.18 "Hg10 mi
12:56 PM56 °FLight rain. Cloudy.10 mph87%30.18 "Hg10 mi
11:56 AM57 °FLight rain. Mostly cloudy.7 mph83%30.17 "Hg10 mi
10:56 AM56 °FLight rain. Mostly cloudy.8 mph87%30.16 "Hg10 mi
9:56 AM54 °FRain. Fog.7 mph86%30.16 "Hg2 mi
8:56 AM52 °FLight rain. Fog.5 mph93%30.14 "Hg5 mi
7:56 AM51 °FMostly cloudy.7 mph92%30.14 "Hg10 mi
6:56 AM50 °FPartly cloudy.5 mph93%30.14 "Hg7 mi
5:56 AM51 °FPassing clouds.8 mph92%30.14 "Hg10 mi
4:56 AM52 °FOvercast.8 mph93%30.14 "Hg10 mi
3:56 AM53 °FMostly cloudy.7 mph89%30.14 "Hg10 mi
2:56 AM53 °FFog.10 mph93%30.14 "Hg6 mi
1:56 AM53 °FPartly cloudy.7 mph89%30.14 "Hg7 mi
Weather by CustomWeather, © 2016

See weather overviewHow to use our weather pages